Tracking 20092 objects as of 14-Dec-2019
HD Live streaming from Space Station
objects crossing your sky now

COSMOS 2526

Track COSMOS 2526 now!


NORAD ID: 43432
Int'l Code: 2018-037A
Perigee: 35,791.5 km
Apogee: 35,797.5 km
Inclination: 0.0 °
Period: 1,436.1 minutes
Semi major axis: 42165 km
RCS: Unknown
Launch date: April 18, 2018
Source: Commonwealth of Independent States (former USSR) (CIS)
Launch site: TYURATAM MISSILE AND SPACE COMPLEX (TTMTR)
aabbcc
Your satellite tracking list
Your tracking list is empty




NASA's NSSDC Master Catalog

Two Line Element Set (TLE):
1 43432U 18037A   19347.90674556 -.00000330 +00000-0 +00000-0 0  9998
2 43432 000.0288 069.4146 0000715 267.6901 199.6762 01.00268992006148
Source of the keplerian elements: AFSPC